• In Hungary
  • List of Countries
  • For 7 days
  • Water Temperature
  • Satellite Maps
  • Weather Map
  • News
  • Weather Widgets
  • user-avatar
    Login

    Hourly Weather Providence

    Today, 23 October, Monday

    Time Temperature Precipitation Wind Pressure Humidity
    00:00 +14°C° 0 mm 1 mps 771 mmHg 85%
    01:00 +14°C° 0 mm 1 mps 771 mmHg 87%
    02:00 +14°C° 0 mm 1 mps 770 mmHg 87%
    03:00 +14°C° 0 mm 1 mps 770 mmHg 88%
    04:00 +14°C° 0 mm 1 mps 770 mmHg 88%
    05:00 +14°C° 0 mm 1 mps 770 mmHg 88%
    06:00 +14°C° 0 mm 1 mps 770 mmHg 87%
    07:00 +13°C° 0 mm 0 mps 770 mmHg 85%
    08:00 +18°C° 0 mm 1 mps 770 mmHg 77%
    09:00 +19°C° 0 mm 2 mps 769 mmHg 70%
    10:00 +21°C° 0 mm 3 mps 769 mmHg 63%
    11:00 +22°C° 0 mm 3 mps 768 mmHg 62%
    12:00 +23°C° 0 mm 4 mps 768 mmHg 61%
    13:00 +25°C° 0 mm 4 mps 767 mmHg 61%
    14:00 +23°C° 0 mm 4 mps 767 mmHg 64%
    15:00 +22°C° 0 mm 4 mps 766 mmHg 67%
    16:00 +22°C° 0 mm 3 mps 766 mmHg 70%
    17:00 +21°C° 0 mm 3 mps 765 mmHg 75%
    18:00 +20°C° 0 mm 3 mps 765 mmHg 80%
    19:00 +19°C° 0 mm 3 mps 765 mmHg 86%
    20:00 +19°C° 0.1 mm 4 mps 765 mmHg 87%
    21:00 +19°C° 0.1 mm 4 mps 764 mmHg 87%
    22:00 +20°C° 0.1 mm 4 mps 764 mmHg 88%
    23:00 +20°C° 0.1 mm 5 mps 764 mmHg 88%

    Tomorrow, 24 October, Tuesday

    Time Temperature Precipitation Wind Pressure Humidity
    00:00 +20°C° 0.1 mm 5 mps 763 mmHg 88%
    01:00 +20°C° 0.1 mm 5 mps 763 mmHg 89%
    02:00 +20°C° 0.1 mm 5 mps 763 mmHg 88%
    03:00 +20°C° 0.1 mm 5 mps 762 mmHg 88%
    04:00 +20°C° 0.1 mm 5 mps 761 mmHg 88%
    05:00 +20°C° 0.2 mm 5 mps 761 mmHg 88%
    06:00 +21°C° 0.2 mm 6 mps 761 mmHg 89%
    07:00 +21°C° 0.2 mm 6 mps 761 mmHg 89%
    08:00 +22°C° 0.2 mm 7 mps 761 mmHg 86%
    09:00 +22°C° 0.2 mm 7 mps 761 mmHg 82%
    10:00 +23°C° 0.2 mm 8 mps 761 mmHg 79%
    11:00 +23°C° 0.3 mm 8 mps 760 mmHg 77%
    12:00 +24°C° 0.3 mm 8 mps 760 mmHg 76%
    13:00 +24°C° 0.3 mm 8 mps 759 mmHg 75%
    14:00 +23°C° 0.2 mm 8 mps 759 mmHg 77%
    15:00 +23°C° 0.2 mm 7 mps 759 mmHg 80%
    16:00 +22°C° 0.2 mm 7 mps 758 mmHg 82%
    17:00 +22°C° 0.1 mm 7 mps 758 mmHg 83%
    18:00 +22°C° 0.1 mm 7 mps 759 mmHg 84%
    19:00 +22°C° 0.1 mm 7 mps 759 mmHg 85%
    20:00 +22°C° 0.2 mm 7 mps 758 mmHg 85%
    21:00 +22°C° 0.2 mm 7 mps 758 mmHg 85%
    22:00 +22°C° 0.2 mm 8 mps 757 mmHg 86%
    23:00 +22°C° 0.7 mm 8 mps 757 mmHg 86%

    Day after tomorrow, 25 October, Wednesday

    Time Temperature Precipitation Wind Pressure Humidity
    00:00 +22°C° 0.7 mm 8 mps 756 mmHg 87%
    01:00 +22°C° 0.7 mm 8 mps 756 mmHg 87%
    02:00 +21°C° 2.3 mm 7 mps 756 mmHg 89%
    03:00 +21°C° 2.3 mm 6 mps 755 mmHg 91%
    04:00 +20°C° 2.3 mm 6 mps 755 mmHg 93%
    05:00 +20°C° 2.5 mm 5 mps 755 mmHg 92%
    06:00 +20°C° 2.5 mm 5 mps 755 mmHg 92%
    07:00 +19°C° 2.5 mm 5 mps 754 mmHg 92%
    08:00 +20°C° 1.6 mm 5 mps 754 mmHg 91%
    09:00 +20°C° 1.6 mm 5 mps 754 mmHg 90%
    10:00 +20°C° 1.6 mm 5 mps 754 mmHg 90%
    11:00 +20°C° 0.9 mm 5 mps 754 mmHg 89%
    12:00 +20°C° 0.9 mm 5 mps 753 mmHg 87%
    13:00 +20°C° 0.9 mm 5 mps 753 mmHg 86%
    14:00 +20°C° 0.7 mm 5 mps 753 mmHg 86%
    15:00 +19°C° 0.7 mm 4 mps 753 mmHg 86%
    16:00 +18°C° 0.7 mm 4 mps 753 mmHg 86%
    17:00 +18°C° 0.2 mm 4 mps 753 mmHg 85%
    18:00 +18°C° 0.2 mm 4 mps 754 mmHg 84%
    19:00 +17°C° 0.2 mm 4 mps 754 mmHg 84%
    20:00 +17°C° 0.3 mm 3 mps 754 mmHg 83%
    21:00 +16°C° 0.3 mm 3 mps 755 mmHg 82%
    22:00 +16°C° 0.3 mm 3 mps 755 mmHg 81%
    23:00 +14°C° 0 mm 3 mps 755 mmHg 75%

    26 October, Thursday

    Time Temperature Precipitation Wind Pressure Humidity
    00:00 +13°C° 0 mm 3 mps 755 mmHg 70%
    01:00 +13°C° 0 mm 3 mps 755 mmHg 64%
    02:00 +12°C° 0 mm 3 mps 755 mmHg 65%
    03:00 +12°C° 0 mm 3 mps 755 mmHg 67%
    04:00 +11°C° 0 mm 3 mps 756 mmHg 68%
    05:00 +11°C° 0 mm 3 mps 756 mmHg 69%
    06:00 +10°C° 0 mm 3 mps 757 mmHg 70%
    07:00 +10°C° 0 mm 3 mps 758 mmHg 71%
    08:00 +11°C° 0 mm 3 mps 758 mmHg 63%
    09:00 +12°C° 0 mm 4 mps 759 mmHg 56%
    10:00 +14°C° 0 mm 4 mps 759 mmHg 48%
    11:00 +15°C° 0 mm 4 mps 759 mmHg 46%
    12:00 +16°C° 0 mm 3 mps 759 mmHg 44%
    13:00 +17°C° 0 mm 3 mps 759 mmHg 41%
    14:00 +17°C° 0 mm 3 mps 760 mmHg 44%
    15:00 +16°C° 0 mm 2 mps 760 mmHg 47%
    16:00 +16°C° 0 mm 2 mps 761 mmHg 49%
    17:00 +14°C° 0 mm 2 mps 761 mmHg 53%
    18:00 +13°C° 0 mm 1 mps 762 mmHg 58%
    19:00 +12°C° 0 mm 1 mps 763 mmHg 62%
    20:00 +11°C° 0 mm 1 mps 763 mmHg 64%
    21:00 +11°C° 0 mm 1 mps 763 mmHg 66%
    22:00 +9°C° 0 mm 0 mps 764 mmHg 68%
    23:00 +10°C° 0 mm 1 mps 764 mmHg 68%

    27 October, Friday

    Time Temperature Precipitation Wind Pressure Humidity
    00:00 +10°C° 0 mm 1 mps 764 mmHg 68%
    01:00 +10°C° 0 mm 1 mps 764 mmHg 69%
    02:00 +9°C° 0 mm 1 mps 764 mmHg 69%
    03:00 +9°C° 0 mm 1 mps 764 mmHg 70%
    04:00 +9°C° 0 mm 1 mps 764 mmHg 70%
    05:00 +9°C° 0 mm 1 mps 765 mmHg 70%
    06:00 +9°C° 0 mm 1 mps 765 mmHg 71%
    07:00 +10°C° 0 mm 1 mps 765 mmHg 71%
    08:00 +12°C° 0 mm 1 mps 765 mmHg 64%
    09:00 +15°C° 0 mm 1 mps 765 mmHg 57%
    10:00 +18°C° 0 mm 1 mps 765 mmHg 50%
    11:00 +19°C° 0 mm 1 mps 765 mmHg 47%
    12:00 +20°C° 0 mm 1 mps 764 mmHg 44%
    13:00 +21°C° 0 mm 1 mps 764 mmHg 42%
    14:00 +20°C° 0 mm 1 mps 764 mmHg 47%
    15:00 +19°C° 0 mm 1 mps 764 mmHg 52%
    16:00 +18°C° 0 mm 1 mps 764 mmHg 57%
    17:00 +15°C° 0 mm 1 mps 764 mmHg 64%
    18:00 +14°C° 0 mm 1 mps 764 mmHg 72%
    19:00 +12°C° 0 mm 1 mps 764 mmHg 79%
    20:00 +12°C° 0 mm 1 mps 764 mmHg 82%
    21:00 +11°C° 0 mm 1 mps 764 mmHg 85%
    22:00 +11°C° 0 mm 1 mps 764 mmHg 88%
    23:00 +11°C° 0 mm 1 mps 764 mmHg 89%

    28 October, Saturday

    Time Temperature Precipitation Wind Pressure Humidity
    00:00 +9°C° 0 mm 0 mps 764 mmHg 90%
    01:00 +9°C° 0 mm 0 mps 764 mmHg 91%
    02:00 +10°C° 0 mm 1 mps 764 mmHg 92%
    03:00 +10°C° 0 mm 1 mps 763 mmHg 92%
    04:00 +10°C° 0 mm 1 mps 763 mmHg 93%
    05:00 +10°C° 0 mm 1 mps 763 mmHg 92%
    06:00 +10°C° 0 mm 1 mps 764 mmHg 91%
    07:00 +10°C° 0 mm 1 mps 764 mmHg 90%
    08:00 +12°C° 0 mm 1 mps 763 mmHg 80%
    09:00 +15°C° 0 mm 1 mps 763 mmHg 70%
    10:00 +17°C° 0 mm 2 mps 763 mmHg 60%
    11:00 +18°C° 0 mm 2 mps 762 mmHg 56%
    12:00 +18°C° 0 mm 2 mps 762 mmHg 53%
    13:00 +19°C° 0 mm 2 mps 761 mmHg 50%
    14:00 +18°C° 0 mm 2 mps 761 mmHg 55%
    15:00 +17°C° 0 mm 2 mps 761 mmHg 60%
    16:00 +16°C° 0 mm 2 mps 760 mmHg 65%
    17:00 +15°C° 0 mm 2 mps 760 mmHg 73%
    18:00 +13°C° 0 mm 2 mps 760 mmHg 82%
    19:00 +12°C° 0 mm 1 mps 760 mmHg 90%
    20:00 +12°C° 0 mm 1 mps 760 mmHg 91%
    21:00 +11°C° 0 mm 1 mps 759 mmHg 92%
    22:00 +10°C° 0 mm 0 mps 759 mmHg 93%
    23:00 +10°C° 0 mm 0 mps 759 mmHg 93%

    29 October, Sunday

    Time Temperature Precipitation Wind Pressure Humidity
    00:00 +11°C° 0 mm 1 mps 758 mmHg 93%
    01:00 +11°C° 0 mm 1 mps 758 mmHg 94%
    02:00 +11°C° 0 mm 1 mps 757 mmHg 94%
    03:00 +11°C° 0 mm 1 mps 757 mmHg 95%
    04:00 +11°C° 0 mm 1 mps 756 mmHg 96%
    05:00 +10°C° 0.1 mm 2 mps 756 mmHg 95%
    06:00 +12°C° 0.1 mm 2 mps 756 mmHg 94%
    07:00 +12°C° 0.1 mm 2 mps 756 mmHg 94%
    08:00 +13°C° 0.3 mm 2 mps 755 mmHg 93%
    09:00 +13°C° 0.3 mm 2 mps 755 mmHg 93%
    10:00 +13°C° 0.3 mm 2 mps 755 mmHg 93%
    11:00 +14°C° 1.4 mm 2 mps 754 mmHg 93%
    12:00 +13°C° 1.4 mm 3 mps 753 mmHg 93%
    13:00 +13°C° 1.4 mm 3 mps 752 mmHg 94%
    14:00 +13°C° 0.5 mm 3 mps 751 mmHg 94%
    15:00 +13°C° 0.5 mm 3 mps 750 mmHg 95%
    16:00 +13°C° 0.5 mm 3 mps 750 mmHg 95%
    17:00 +13°C° 0.1 mm 3 mps 749 mmHg 96%
    18:00 +13°C° 0.1 mm 3 mps 748 mmHg 96%
    19:00 +14°C° 0.1 mm 3 mps 748 mmHg 96%
    20:00 +13°C° 0.1 mm 3 mps 747 mmHg 96%
    21:00 +14°C° 0.1 mm 2 mps 746 mmHg 96%
    22:00 +14°C° 0.1 mm 2 mps 745 mmHg 97%
    23:00 +14°C° 0 mm 2 mps 744 mmHg 96%
    Show more